Temperature
13 13 13 13 13 14 14 14 14 14 14 14 14 14 14 14 14 14 14 14 14 14 14 14 13 13 13 13 13 13 13 13 13 13 12 12 12 12 12 12 12 12 12
13 13 13 13 13 13 13 13 13 13 13 14 14 14 14 14 14 14 14 14 14 14 13 13 13 13 13 13 13 13 13 13 13 13 12 12 12 12 12 12 12 12 12
12 12 12 13 13 13 13 13 13 13 13 13 13 13 13 13 13 13 13 13 14 13 13 13 13 13 13 13 13 13 13 13 13 13 12 12 12 12 12 12 12 12 12
11 12 12 12 12 12 12 12 12 12 12 13 13 13 13 13 13 13 13 13 13 13 13 13 13 13 13 13 13 13 13 13 13 13 12 12 12 12 12 12 12 12 12
11 11 11 11 11 12 12 12 12 12 12 12 12 13 13 13 13 13 13 13 13 13 13 13 13 13 13 13 13 13 13 13 13 13 12 12 12 12 12 12 12 12 12
10 10 11 11 11 11 11 11 11 11 11 12 12 12 12 12 12 12 13 13 13 13 13 12 12 12 12 12 12 12 12 12 12 12 12 12 12 12 12 12 12 12 12
10 10 10 10 10 10 11 11 11 11 11 11 11 11 12 12 12 12 12 12 12 12 12 12 12 12 12 12 12 12 12 12 12 12 12 12 12 12 12 12 12 12 12
9 9 9 9 10 10 10 10 10 10 10 10 10 10 10 11 12 12 12 12 12 12 12 12 12 12 12 12 12 12 12 12 12 12 12 12 12 12 12 12 12 12 12
9 9 9 9 9 9 9 9 10 9 9 10 10 10 10 10 10 11 11 11 11 11 11 11 11 11 11 11 12 12 12 12 12 12 12 12 12 12 12 12 12 12 12
8 8 8 8 8 8 9 9 9 9 9 9 9 9 9 9 9 9 10 10 10 10 11 11 11 11 11 11 11 11 11 11 11 11 11 11 11 11 11 11 12 11 11
7 8 8 8 8 8 8 8 8 8 8 8 8 8 8 8 9 8 9 9 10 10 10 10 10 10 10 10 10 11 11 11 11 11 11 11 11 11 11 11 11 11 11
7 7 7 7 7 7 7 7 7 8 8 8 7 7 8 8 8 8 8 8 8 9 9 9 9 9 9 10 10 10 10 10 10 10 10 11 11 11 11 11 11 11 11
7 7 7 7 7 7 7 7 7 7 7 7 7 7 7 7 7 7 7 7 7 8 8 8 8 8 8 9 9 9 9 9 9 10 10 10 10 10 10 10 10 10 10
6 6 6 6 6 6 6 6 6 6 6 6 6 6 6 6 6 6 6 6 6 6 7 7 8 8 8 8 8 8 8 9 9 9 9 9 9 9 10 10 10 10 10
5 5 5 5 5 5 5 5 6 6 5 5 6 6 5 6 6 5 5 5 5 4 5 6 6 7 7 7 7 7 8 8 8 8 8 9 9 9 9 9 9 9 9
5 5 5 5 5 5 5 5 5 5 5 5 5 5 5 5 5 4 4 4 4 3 3 4 5 5 6 6 6 6 7 7 7 7 7 8 8 8 8 8 9 9 9
4 4 4 4 4 4 4 4 4 4 4 4 4 4 4 4 4 4 3 3 3 3 3 3 4 4 5 5 5 5 6 6 6 6 6 7 7 7 7 7 8 8 8
4 4 4 4 4 4 4 4 3 3 3 3 3 3 3 3 3 3 3 2 2 2 2 2 3 3 3 4 4 4 5 5 5 5 5 6 6 6 6 6 7 7 7
3 3 3 3 3 3 3 3 3 3 2 2 2 2 2 2 2 2 1 1 1 1 1 1 1 2 2 2 3 3 3 4 4 4 4 5 5 5 5 5 6 6 6
3 3 3 2 2 2 2 2 2 2 2 1 1 1 1 0 0 0 0 0 -0 -0 -0 -0 -0 0 1 1 1 1 2 2 3 3 3 3 3 4 4 4 5 5 5
2 2 2 2 2 1 1 1 1 1 1 0 0 0 -0 -1 -1 -1 -1 -1 -1 -1 -2 -2 -2 -1 -1 -1 -1 -1 -1 0 1 1 2 2 2 3 3 3 3 4 4
2 2 2 1 1 1 0 0 -0 -0 -0 -0 -0 -1 -1 -1 -1 -2 -2 -2 -2 -3 -3 -3 -3 -3 -3 -3 -3 -3 -3 -3 -2 -1 -1 0 1 1 2 2 2 3 3
1 1 1 1 0 0 -0 -1 -1 -1 -1 -1 -1 -1 -2 -2 -2 -2 -3 -3 -3 -4 -4 -4 -4 -4 -4 -4 -4 -4 -4 -4 -4 -3 -3 -2 -0 0 1 1 1 2 2
1 1 1 0 -0 -0 -1 -1 -1 -2 -2 -2 -2 -2 -2 -3 -3 -3 -4 -4 -4 -4 -4 -5 -5 -5 -5 -5 -5 -5 -5 -5 -4 -4 -4 -3 -2 -1 -1 0 1 1 1
1 0 0 -0 -1 -1 -1 -2 -2 -2 -2 -2 -3 -3 -3 -3 -4 -4 -5 -5 -5 -5 -5 -5 -5 -5 -5 -5 -5 -6 -5 -5 -5 -4 -4 -5 -4 -3 -2 -1 -0 0 0
0 -0 -0 -1 -1 -1 -2 -2 -3 -3 -3 -3 -3 -3 -4 -4 -5 -5 -6 -5 -5 -5 -6 -6 -6 -6 -6 -6 -6 -6 -6 -6 -6 -6 -5 -5 -5 -5 -4 -2 -1 -1 -0
Wind_Speed
3 3 3 3 4 5 4 4 5 6 6 8 9 9 9 10 11 12 12 16 18 19 19 19 19 19 19 18 18 17 16 15 15 14 14 13 13 12 11 11 10 9 8
3 3 3 3 4 5 5 5 5 6 6 6 7 8 9 10 11 12 13 14 18 19 20 20 20 20 20 19 19 18 18 18 17 16 16 15 15 14 13 13 12 11 10
4 3 3 4 4 6 5 5 5 5 5 5 7 8 7 8 9 11 12 13 14 17 20 21 21 21 21 21 21 20 20 19 19 18 18 17 17 16 15 15 14 13 12
6 4 3 4 5 5 4 4 4 5 6 6 6 6 6 6 8 10 10 11 12 13 16 20 21 21 21 21 22 21 21 20 20 20 20 19 19 18 18 17 16 15 14
6 4 3 4 5 3 3 4 4 4 5 6 6 6 6 6 7 8 8 10 12 12 13 15 18 20 20 21 22 22 22 21 21 21 21 21 20 19 19 19 18 17 16
7 5 3 4 4 3 3 3 4 4 4 4 5 5 5 6 6 7 8 8 9 11 12 12 13 14 18 21 22 23 23 22 21 21 21 21 21 21 20 20 20 19 18
7 5 4 3 3 3 4 4 4 4 4 2 3 4 4 5 6 6 6 6 7 8 9 10 11 11 13 17 20 22 23 22 21 20 21 21 21 21 21 21 20 20 20
8 6 4 3 3 3 4 3 3 2 2 2 2 2 3 3 3 5 5 6 6 5 6 8 10 11 12 12 14 20 22 22 21 21 21 21 21 21 20 20 20 20 20
9 7 6 4 3 3 3 4 3 2 3 2 2 2 2 3 2 2 4 4 4 4 5 5 7 9 11 12 12 15 18 21 22 22 22 21 21 21 21 21 20 20 20
9 9 7 6 4 3 3 4 4 3 2 2 2 2 2 1 2 3 2 2 3 4 5 5 5 7 9 10 11 12 13 16 19 21 21 21 21 21 22 22 21 21 21
8 10 9 7 5 4 4 4 4 3 3 3 2 1 2 2 2 3 4 3 3 3 4 5 4 4 5 6 6 8 10 13 16 19 20 21 22 22 22 21 21 21 21
5 9 9 7 6 5 5 4 3 4 3 3 2 1 1 1 1 2 4 4 4 3 4 4 3 2 2 4 6 9 11 13 15 17 19 19 19 19 20 20 20 21 21
5 7 7 7 6 6 6 4 4 4 4 4 3 2 2 2 2 2 3 4 4 3 3 2 1 1 4 5 7 10 10 12 15 17 18 18 18 18 18 19 20 20 19
4 6 7 7 7 8 7 5 4 5 5 5 5 5 3 3 3 3 2 3 5 4 3 2 1 3 5 7 9 10 10 11 13 15 17 17 17 17 17 17 19 20 19
4 6 7 7 7 8 8 6 5 5 5 5 5 5 4 4 4 4 4 3 3 4 4 2 2 4 6 7 10 10 10 12 13 13 14 14 15 15 16 15 16 17 18
5 6 6 7 7 7 7 7 6 6 6 6 5 6 5 5 5 5 4 4 3 3 4 3 3 5 7 7 11 11 10 12 12 13 12 12 13 14 14 13 14 15 16
5 6 6 6 7 7 7 7 6 7 7 6 6 6 6 5 4 4 4 4 4 3 5 4 3 6 6 8 9 9 10 9 10 12 12 12 12 12 12 13 13 14 15
4 4 5 5 6 6 6 6 6 6 6 6 6 6 6 5 5 5 4 4 4 4 3 6 5 5 6 8 8 8 8 9 9 12 12 13 12 12 12 13 13 12 13
4 4 5 5 5 5 5 5 5 5 5 5 4 5 5 5 5 4 4 4 4 4 3 4 6 5 5 6 8 8 8 7 9 11 13 12 12 12 12 13 13 13 12
2 3 3 3 3 3 3 3 3 4 4 4 4 4 4 4 4 4 4 4 4 4 4 4 5 5 5 6 6 7 8 7 8 9 11 11 12 13 13 14 14 13 12
2 2 3 3 3 3 2 2 2 3 3 4 4 4 4 6 7 6 5 4 4 4 4 5 5 6 6 6 7 6 9 9 7 5 6 7 8 7 9 12 13 13 13
1 2 2 2 3 3 5 5 3 2 2 3 4 4 5 5 8 10 10 9 8 6 5 5 5 7 8 7 6 8 8 9 7 4 6 9 6 8 7 8 13 16 15
0 1 1 2 3 4 5 5 4 2 2 2 3 4 5 6 8 5 7 9 9 10 9 6 6 7 8 8 8 8 8 8 9 7 7 9 6 8 8 11 16 16 16
2 1 1 2 2 4 5 5 5 2 2 3 3 3 4 5 6 6 5 5 5 6 8 6 5 7 7 7 7 8 10 9 9 6 5 7 7 7 10 9 15 16 16
2 2 2 2 2 4 6 5 4 1 2 3 4 4 5 5 9 11 6 6 7 7 9 11 12 12 14 15 12 7 7 8 9 6 3 4 5 7 8 8 10 13 15
2 2 2 2 3 4 6 6 5 2 3 3 4 4 7 8 11 11 6 6 8 8 7 7 8 10 9 10 12 7 6 7 7 6 3 3 5 6 6 5 6 7 9
Wind_Direction
291 290 289 282 274 264 249 247 242 239 235 230 228 225 223 223 225 227 231 231 231 234 237 236 234 232 229 228 228 227 227 227 227 226 226 225 224 226 227 226 227 230 233
306 292 283 277 276 271 259 249 246 244 243 237 237 232 230 228 228 230 234 236 235 235 238 239 238 236 233 232 231 230 228 229 229 230 230 228 227 227 228 228 227 230 233
305 296 278 275 277 276 269 260 255 250 247 242 241 239 237 233 231 231 233 236 238 236 237 240 241 239 238 237 235 233 231 230 230 231 231 230 229 228 228 228 228 229 230
314 308 287 284 289 280 267 263 256 255 252 246 244 241 237 235 237 235 233 234 236 237 237 239 241 242 242 242 241 239 235 232 231 231 231 230 229 229 230 230 228 228 229
330 321 301 304 304 285 275 274 267 257 256 255 251 245 237 235 237 238 231 232 233 234 235 238 240 242 244 245 246 245 242 238 236 234 232 231 229 230 231 232 230 229 229
342 340 328 322 318 296 288 281 273 266 261 261 263 256 246 243 237 235 233 231 230 231 234 238 241 244 245 246 248 248 246 244 240 238 236 233 231 230 231 233 231 230 230
350 350 331 324 322 302 294 286 271 273 267 275 269 272 260 243 240 240 236 231 230 230 231 234 237 241 246 245 246 248 249 247 245 243 242 239 236 233 234 234 232 231 231
357 356 338 326 327 315 312 311 306 277 269 246 237 272 277 276 254 242 235 233 235 230 229 233 235 239 244 247 246 244 246 250 250 248 245 244 242 238 236 235 234 231 230
4 3 355 348 346 345 331 325 325 296 282 271 240 223 246 258 303 278 246 238 238 237 241 243 244 247 249 250 252 249 246 248 250 252 249 245 243 241 239 239 237 235 232
5 4 3 4 359 354 349 342 344 321 299 292 297 284 264 258 263 294 292 266 261 250 251 253 254 258 255 256 258 257 253 249 250 254 254 252 247 244 243 242 240 238 234
6 7 7 7 1 353 351 354 350 347 323 305 296 292 279 290 261 263 282 300 295 268 268 263 259 262 269 274 279 284 276 263 260 260 260 258 253 249 247 245 242 240 237
2 5 6 7 3 357 350 350 355 1 348 336 328 334 328 308 311 280 274 283 285 286 284 269 263 267 298 298 291 291 280 272 269 270 268 267 264 258 252 250 248 244 239
2 360 6 6 5 360 360 2 10 10 6 1 357 345 351 347 337 306 288 293 290 288 278 282 291 337 341 333 319 311 292 282 274 272 273 274 274 271 263 255 252 248 242
360 1 8 12 13 13 14 17 27 23 24 19 18 13 10 7 4 351 319 305 297 289 273 278 360 16 358 350 342 336 325 311 294 283 279 279 281 280 276 265 255 249 244
12 15 18 20 20 22 23 24 29 23 27 29 27 25 21 12 9 6 357 337 300 287 282 305 345 3 350 346 344 341 335 327 315 297 287 285 285 285 279 272 263 252 244
18 20 24 25 25 27 29 37 35 27 37 31 31 34 29 19 15 12 2 352 339 294 282 321 339 340 341 339 340 339 331 329 325 320 307 296 289 285 282 274 266 257 245
23 25 26 28 28 28 29 39 40 39 40 34 32 36 29 25 22 12 8 5 351 325 287 300 316 327 330 331 328 330 328 323 320 318 316 310 298 292 287 284 276 267 252
23 24 30 34 32 30 31 37 37 37 39 34 28 30 21 18 21 13 12 5 353 340 308 303 312 324 323 327 322 321 325 325 320 317 317 316 310 303 298 290 284 278 264
23 24 31 31 27 26 29 31 36 37 38 32 24 28 14 11 11 3 3 357 343 339 327 309 312 320 317 328 330 328 325 323 325 326 323 318 317 318 308 299 291 282 273
29 21 19 18 17 18 23 22 32 35 31 25 17 17 9 2 353 345 351 345 338 335 332 321 314 318 319 324 329 333 331 331 325 324 323 324 326 323 316 307 300 290 276
26 16 16 9 2 3 10 15 28 31 24 16 11 5 357 360 360 356 352 347 343 337 332 327 322 324 328 336 335 329 323 323 317 319 327 324 321 314 312 306 301 295 283
2 11 5 356 352 353 358 7 16 27 20 9 357 347 343 347 350 351 347 347 344 334 327 319 317 317 317 317 317 317 317 319 316 327 326 313 314 307 304 297 301 300 288
252 316 325 339 329 329 345 350 355 21 10 345 337 337 339 340 343 325 329 335 334 331 325 312 305 303 304 309 308 306 305 302 295 301 308 298 303 301 300 298 302 302 296
228 249 283 299 307 318 334 336 338 2 330 316 313 309 308 310 316 320 315 316 309 308 309 305 286 289 296 297 293 295 296 296 288 285 287 288 297 293 298 291 295 298 300
232 246 262 277 290 304 323 323 324 290 293 296 296 298 305 296 312 322 322 313 310 304 312 311 310 310 311 314 315 311 308 306 300 297 282 281 297 303 295 288 287 298 302
229 249 273 270 273 286 306 312 314 273 289 292 293 294 306 311 313 317 312 305 304 301 302 306 307 307 306 309 314 308 299 296 297 296 299 306 302 319 307 291 295 300 300
Height
1509 1509 1510 1510 1511 1511 1512 1512 1513 1513 1514 1515 1515 1516 1517 1518 1519 1520 1521 1523 1524 1525 1526 1527 1528 1529 1530 1530 1531 1532 1532 1533 1533 1534 1535 1535 1535 1536 1536 1536 1537 1537 1537
1505 1505 1506 1506 1506 1507 1508 1508 1508 1509 1509 1510 1510 1511 1512 1513 1514 1515 1516 1518 1519 1521 1522 1523 1524 1525 1526 1527 1528 1528 1529 1530 1531 1531 1532 1532 1533 1533 1534 1534 1534 1535 1535
1501 1501 1501 1502 1502 1503 1503 1503 1504 1504 1504 1505 1505 1506 1506 1507 1508 1510 1511 1513 1514 1516 1517 1518 1520 1521 1522 1523 1524 1525 1525 1526 1527 1528 1528 1529 1530 1530 1531 1531 1531 1532 1532
1498 1497 1497 1498 1498 1498 1499 1499 1499 1499 1499 1500 1500 1501 1501 1502 1503 1504 1505 1506 1508 1510 1511 1513 1514 1516 1517 1518 1519 1520 1521 1522 1523 1524 1524 1525 1526 1526 1527 1528 1528 1529 1529
1494 1494 1494 1494 1494 1494 1494 1494 1494 1494 1494 1495 1495 1495 1496 1496 1498 1499 1499 1500 1502 1504 1505 1507 1508 1510 1511 1512 1514 1515 1516 1517 1518 1519 1520 1521 1522 1522 1523 1524 1524 1525 1525
1491 1491 1490 1490 1490 1490 1490 1490 1490 1490 1490 1490 1490 1490 1490 1491 1492 1493 1494 1495 1496 1497 1499 1501 1502 1503 1505 1507 1508 1509 1510 1511 1512 1513 1514 1516 1516 1517 1518 1519 1520 1520 1521
1488 1487 1486 1486 1486 1485 1485 1485 1485 1485 1485 1486 1486 1485 1485 1486 1486 1487 1489 1489 1490 1492 1493 1495 1496 1497 1498 1500 1501 1502 1504 1505 1506 1507 1509 1510 1511 1512 1513 1514 1515 1516 1516
1485 1484 1483 1482 1482 1482 1482 1481 1481 1481 1481 1481 1482 1481 1481 1481 1481 1482 1483 1484 1485 1487 1488 1489 1491 1491 1492 1493 1494 1495 1497 1498 1500 1501 1502 1503 1504 1506 1507 1508 1509 1510 1511
1483 1482 1481 1480 1479 1478 1478 1478 1477 1477 1477 1477 1478 1479 1478 1477 1477 1477 1478 1479 1480 1481 1482 1483 1484 1486 1486 1486 1487 1488 1490 1491 1492 1494 1495 1496 1497 1499 1501 1502 1503 1504 1505
1481 1480 1478 1477 1476 1475 1475 1474 1474 1474 1474 1474 1474 1474 1475 1475 1475 1473 1474 1474 1475 1476 1477 1478 1479 1479 1479 1480 1480 1481 1482 1483 1485 1486 1488 1489 1490 1492 1493 1495 1496 1498 1499
1480 1478 1477 1475 1474 1473 1472 1471 1471 1471 1471 1470 1470 1470 1471 1472 1471 1471 1470 1470 1471 1471 1472 1473 1473 1473 1473 1473 1473 1473 1474 1475 1477 1478 1480 1481 1483 1484 1486 1487 1488 1490 1492
1478 1476 1475 1473 1472 1470 1469 1469 1469 1468 1468 1468 1468 1467 1467 1468 1468 1468 1467 1466 1466 1466 1467 1468 1468 1467 1467 1467 1467 1467 1467 1468 1469 1470 1471 1473 1474 1476 1477 1479 1480 1482 1484
1476 1474 1473 1472 1470 1469 1468 1467 1466 1466 1465 1465 1465 1464 1464 1465 1465 1464 1464 1462 1461 1461 1462 1462 1462 1462 1461 1461 1461 1460 1460 1460 1461 1462 1463 1464 1465 1467 1469 1470 1472 1474 1476
1475 1473 1472 1470 1469 1467 1466 1465 1465 1464 1463 1463 1462 1462 1462 1462 1461 1461 1460 1460 1457 1456 1457 1457 1457 1457 1456 1455 1454 1453 1453 1453 1453 1453 1454 1455 1457 1458 1460 1461 1463 1465 1467
1474 1472 1471 1469 1468 1466 1465 1464 1463 1462 1461 1461 1460 1460 1459 1459 1458 1458 1457 1457 1456 1453 1452 1452 1452 1451 1450 1449 1448 1447 1446 1445 1445 1446 1446 1447 1448 1449 1451 1453 1454 1456 1458
1473 1471 1470 1468 1466 1465 1463 1462 1461 1460 1459 1458 1458 1457 1456 1455 1455 1454 1453 1453 1452 1451 1448 1447 1447 1446 1445 1443 1442 1441 1440 1439 1439 1438 1438 1439 1440 1441 1442 1444 1445 1447 1448
1472 1470 1468 1467 1465 1464 1462 1461 1459 1458 1457 1456 1455 1455 1454 1453 1452 1451 1450 1449 1448 1446 1444 1441 1441 1440 1439 1437 1436 1435 1433 1432 1432 1431 1430 1430 1431 1432 1433 1434 1435 1437 1439
1471 1469 1467 1466 1464 1462 1461 1459 1458 1456 1455 1454 1453 1452 1451 1450 1449 1447 1446 1445 1444 1442 1440 1437 1435 1434 1433 1431 1429 1428 1427 1425 1424 1423 1423 1422 1423 1423 1424 1425 1426 1427 1429
1469 1468 1466 1465 1463 1461 1460 1458 1456 1455 1453 1452 1451 1449 1448 1447 1445 1444 1442 1441 1440 1438 1436 1434 1431 1429 1427 1425 1423 1422 1420 1419 1418 1417 1416 1415 1415 1415 1415 1416 1417 1418 1419
1468 1466 1465 1463 1462 1460 1458 1457 1455 1453 1452 1450 1449 1447 1446 1444 1442 1441 1439 1437 1436 1434 1432 1430 1427 1424 1423 1420 1418 1415 1413 1412 1411 1410 1409 1408 1408 1407 1407 1407 1408 1409 1410
1466 1464 1463 1462 1460 1458 1457 1455 1453 1451 1450 1448 1447 1445 1444 1442 1440 1438 1436 1434 1433 1430 1428 1426 1423 1421 1418 1416 1414 1411 1409 1406 1404 1403 1402 1401 1400 1400 1399 1399 1399 1400 1401
1464 1462 1461 1459 1458 1456 1454 1453 1451 1449 1448 1446 1444 1443 1441 1440 1438 1436 1434 1432 1430 1428 1425 1423 1420 1418 1415 1414 1412 1409 1406 1402 1399 1399 1396 1394 1394 1393 1392 1392 1391 1391 1391
1461 1459 1458 1456 1455 1453 1452 1450 1448 1447 1445 1443 1441 1440 1438 1436 1435 1433 1431 1429 1427 1425 1423 1421 1418 1415 1413 1410 1408 1405 1403 1400 1396 1394 1392 1387 1388 1386 1385 1384 1383 1383 1382
1457 1456 1454 1453 1452 1450 1449 1447 1445 1444 1442 1440 1438 1437 1435 1433 1431 1429 1427 1425 1423 1421 1419 1417 1415 1412 1410 1407 1405 1402 1399 1395 1392 1391 1389 1384 1381 1379 1378 1376 1376 1375 1374
1454 1453 1451 1450 1448 1447 1446 1444 1442 1440 1438 1437 1435 1433 1431 1429 1428 1426 1424 1421 1419 1417 1415 1413 1411 1408 1406 1403 1401 1398 1395 1391 1387 1384 1384 1381 1376 1373 1370 1368 1368 1368 1366
1450 1449 1448 1446 1445 1443 1442 1440 1439 1437 1435 1433 1432 1430 1428 1426 1424 1422 1420 1417 1414 1412 1410 1407 1405 1403 1401 1398 1396 1394 1391 1388 1384 1380 1378 1377 1372 1370 1364 1361 1361 1360 1358